This is the latest recevied weather packets stored in our database for station/object JA1RBY-13. If no packets are shown the sender has not sent any weather packets the latest 1 day(s).
| Time | Temp. | Humidity | Pressure | Rain* | Wind** | Luminosity | Snow |
|---|---|---|---|---|---|---|---|
| 1778004211 | 13.89° C | 53% | 1022.9 hPa | 0 mm | 0 m/s | - | - |
| 1778003311 | 13.89° C | 52% | 1022.9 hPa | 0 mm | 0 m/s | - | - |
| 1778002411 | 13.89° C | 52% | 1022.9 hPa | 0 mm | 0.45 m/s, 255° | - | - |
| 1778000611 | 13.89° C | 51% | 1022.9 hPa | 0 mm | 0.89 m/s, 236° | - | - |
| 1777999710 | 13.89° C | 51% | 1023 hPa | 0 mm | 0.89 m/s, 240° | - | - |
| 1777998810 | 13.89° C | 50% | 1023.1 hPa | 0 mm | 0.89 m/s, 245° | - | - |
| 1777997010 | 13.89° C | 50% | 1023.3 hPa | 0 mm | 1.34 m/s, 253° | - | - |
| 1777996110 | 13.89° C | 49% | 1023.2 hPa | 0 mm | 1.79 m/s, 240° | - | - |
| 1777993411 | 13.89° C | 50% | 1023.8 hPa | 0 mm | 1.34 m/s, 246° | - | - |
| 1777991610 | 14.44° C | 51% | 1023.8 hPa | 0 mm | 1.79 m/s, 249° | - | - |
| 1777990710 | 14.44° C | 52% | 1023.7 hPa | 0 mm | 1.79 m/s, 251° | - | - |
| 1777988911 | 15° C | 51% | 1023.9 hPa | 0 mm | 2.24 m/s, 258° | - | - |
| 1777988012 | 15° C | 52% | 1023.8 hPa | 0 mm | 2.24 m/s, 249° | - | - |
| 1777986210 | 15° C | 52% | 1023.7 hPa | 0 mm | 1.79 m/s, 251° | - | - |
| 1777985311 | 15° C | 53% | 1023.7 hPa | 0 mm | 2.68 m/s, 250° | - | - |
| 1777984411 | 15.56° C | 53% | 1023.6 hPa | 0 mm | 3.58 m/s, 266° | - | - |
| 1777983510 | 16.11° C | 53% | 1023.6 hPa | 0 mm | 2.24 m/s, 266° | - | - |
| 1777982610 | 16.11° C | 52% | 1023.5 hPa | 0 mm | 2.68 m/s, 265° | - | - |
| 1777981710 | 16.11° C | 53% | 1023.5 hPa | 0 mm | 2.68 m/s, 249° | - | - |
| 1777980810 | 16.11° C | 50% | 1023.3 hPa | 0 mm | 1.34 m/s, 233° | - | - |
| 1777979011 | 16.11° C | 50% | 1023.2 hPa | 0 mm | 2.68 m/s, 240° | - | - |
| 1777978111 | 16.11° C | 49% | 1023 hPa | 0 mm | 2.68 m/s, 215° | - | - |
| 1777977210 | 16.11° C | 49% | 1023 hPa | 0 mm | 1.79 m/s, 256° | - | - |
| 1777976311 | 16.11° C | 47% | 1022.8 hPa | 0 mm | 1.34 m/s, 224° | - | - |
| 1777975411 | 16.11° C | 46% | 1022.8 hPa | 0 mm | 2.24 m/s, 216° | - | - |
* Rain latest hour (hover to see other rain measurements)
** Current wind speed in m/s (hover to see current wind gust speed)